www.pogodaiklimat.ru

Погода и климат >> Архив погоды >> Индия >> Тамилнад >> Тонди


ПОГОДА в Тонди

  • Прогноз погоды в Тонди
  • Монитор погоды в Тонди

АРХИВ ПОГОДЫ в Тонди

Время (UTC), дата Ветер
(напр.,м/с)
 
Видим.   Явления Облачность Т
(С)
Тd
(С)
f
(%)
Тe
(С)
Тes
(С)
Комфортность P
(гПа)
Po
(гПа)
Тmin
(С)
Tmax
(С)
R
(мм)
R24
(мм)
S
(см)
09 14.04 В 3 10 км 4/1 600 м
[Sc diur, vesp Ac trans Ci sp]
+36.4 +26.2 56 +52 +62 опасность
перегрева
1008.3 1007.7
12 14.04 В 1 10 км 3/1 600 м
[Sc Ci fib]
+34.6 +23.1 51 +45 +46 опасность
перегрева
1008.1 1007.5 +37.8
15 14.04 В 2 4000 м 3/1 600 м
[Sc Ci fib]
+31.6 +24.8 67 +45 +45 опасность
перегрева
1009.5 1008.9
18 14.04 В 2 4000 м 1/0
[Ci fib]
+30.8 +26.6 78 +47 +47 опасность
перегрева
1009.9 1009.3
21 14.04 В 2 4000 м 3/1 600 м
[Sc Ci fib]
+30.0 +26.4 81 +46 +46 опасность
перегрева
1008.8 1008.2
00 15.04 штиль 0 4000 м 5/3 600 м
[Cu Sc Ac trans Ci sp]
+29.0 +23.5 72 +39 +39 очень
душно
1010.3 1009.7
03 15.04 штиль 0 10 км 5/3 600 м
[Sc diur, vesp Ac trans Ci fib]
+31.4 +25.2 70 +45 +51 опасность
перегрева
1012.3 1011.7 +28.3 +37.8
06 15.04 В 2 10 км 4/3 600 м
[Sc diur, vesp Ci fib]
+37.0 +25.9 53 +52 +68 опасность
перегрева
1011.6 1011.0
09 15.04 В 3 10 км 4/3 600 м
[Sc diur, vesp Ci fib]
+37.0 +25.3 51 +51 +59 опасность
перегрева
1008.0 1007.4
12 15.04 ЮВ 2 10 км 6/4 600 м
[Sc Ac trans Ci fib]
+33.2 +27.7 73 +53 +54 опасность
перегрева
1007.3 1006.7 +37.9
15 15.04 ЮВ 3 4000 м 3/1 600 м
[Sc Ci fib]
+31.4 +27.6 80 +50 +50 опасность
перегрева
1010.0 1009.4
18 15.04 Ю 4 4000 м 3/1 600 м
[Sc Ci fib]
+31.2 +27.6 81 +50 +50 опасность
перегрева
1011.2 1010.6
21 15.04 штиль 0 4000 м 5/4 600 м
[Sc diur, vesp Ci fib]
+29.6 +25.7 80 +44 +44 опасность
перегрева
1009.0 1008.4
00 16.04 штиль 0 4000 м зарница 4/1 600 м
[Cb calv Ci fib]
+28.8 +25.4 82 +42 +42 опасность
перегрева
1008.7 1008.1
03 16.04 З 1 10 км 5/4 600 м
[Sc diur, vesp Ci fib]
+32.4 +26.0 69 +48 +53 опасность
перегрева
1010.9 1010.3 +28.4 +37.9
06 16.04 Ю 2 10 км 4/3 600 м
[Sc diur, vesp Ci fib]
+37.0 +26.5 55 +53 +68 опасность
перегрева
1010.3 1009.7
09 16.04 Ю 3 10 км 4/3 600 м
[Cb calv Ci fib]
+35.2 +27.6 65 +55 +63 опасность
перегрева
1007.6 1007.0
12 16.04 Ю 3 10 км 6/3 600 м
[Cb cap Ac trans Ci fib]
+32.2 +27.2 75 +51 +51 опасность
перегрева
1007.6 1007.0 +37.7
15 16.04 ЮВ 4 4000 м 9/1 600 м
[Sc Ac trans]
+32.0 +27.0 75 +50 +50 опасность
перегрева
1009.8 1009.2
18 16.04 Ю 3 4000 м 8/8 600 м
[Sc]
+30.6 +26.7 80 +48 +48 опасность
перегрева
1011.2 1010.6
21 16.04 штиль 0 4000 м {гроза} 6/4 600 м
[Sc diur, vesp Ci fib]
+29.0 +25.3 80 +42 +42 опасность
перегрева
1008.9 1008.3
00 17.04 ЮВ 3 4000 м гроза без осадков 6/4 600 м
[Cb cap Ci fib]
+29.4 +25.4 79 +43 +43 опасность
перегрева
1009.2 1008.6
03 17.04 штиль 0 10 км в посл. час гроза {дождь} 9/6 600 м
[Cb calv Ac trans Ci fib]
+29.0 +25.9 83 +43 +46 опасность
перегрева
1011.7 1011.1 +23.4 +37.7 5
06 17.04 Ю 2 10 км {гроза} 8/5 600 м
[Sc diur, vesp Ac trans Ci fib]
+34.4 +27.9 69 +55 +62 опасность
перегрева
1012.1 1011.5
09 17.04 Ю 2 10 км 6/3 600 м
[Sc diur, vesp Ac trans Ci fib]
+33.8 +27.5 70 +53 +63 опасность
перегрева
1008.5 1007.9
12 17.04 Ю 3 10 км 4/0 2000 м
[Ac trans Ci fib]
+33.0 +27.8 74 +53 +54 опасность
перегрева
1007.0 1006.4 +36.9
15 17.04 Ю 6 4000 м 5/1 600 м
[Sc Ac trans Ci sp]
+31.2 +27.6 81 +50 +50 опасность
перегрева
1010.5 1009.9
18 17.04 З 2 4000 м 6/0 2000 м
[Ac trans Ci fib]
+30.4 +27.1 83 +48 +48 опасность
перегрева
1010.7 1010.1
21 17.04 ЮЗ 1 4000 м 8/3 600 м
[Sc diur, vesp Ac trans Ci fib]
+29.8 +26.5 83 +46 +46 опасность
перегрева
1008.3 1007.7
00 18.04 штиль 0 4000 м 5/4 600 м
[Sc diur, vesp Ci fib]
+28.8 +26.0 85 +43 +43 опасность
перегрева
1008.7 1008.1
03 18.04 Ю 1 10 км 6/5 600 м
[Sc diur, vesp Ci fib]
+32.2 +27.0 74 +50 +54 опасность
перегрева
1011.1 1010.5 +28.9 +36.9
06 18.04 Ю 2 10 км 5/5 600 м
[Sc diur, vesp]
+36.2 +27.5 61 +55 +67 опасность
перегрева
1010.8 1010.2
09 18.04 Ю 3 10 км 5/5 600 м
[Sc diur, vesp]
+35.4 +27.2 63 +54 +60 опасность
перегрева
1007.9 1007.3
12 18.04 Ю 3 10 км 5/1 600 м
[Sc Ci sp]
+33.6 +27.6 71 +53 +54 опасность
перегрева
1006.9 1006.3 +36.7
15 18.04 Ю 4 4000 м 4/0
[Ci sp]
+31.8 +27.7 79 +51 +51 опасность
перегрева
1010.2 1009.6
18 18.04 З 2 4000 м 5/3 600 м
[Sc diur, vesp Ac trans Ci sp]
+30.8 +26.6 78 +47 +47 опасность
перегрева
1010.2 1009.6
21 18.04 З 2 4000 м 8/4 600 м
[Sc diur, vesp Ac trans Ci sp]
+30.2 +26.6 81 +47 +47 опасность
перегрева
1008.4 1007.8
00 19.04 З 1 4000 м 4/3 600 м
[Sc diur, vesp Ci sp]
+29.8 +25.6 78 +44 +44 опасность
перегрева
1008.7 1008.1
03 19.04 Ю 2 10 км 8/3 600 м
[Sc diur, vesp Ac trans Ci fib]
+31.4 +25.8 72 +46 +50 опасность
перегрева
1010.4 1009.8 +29.5 +36.7
06 19.04 Ю 2 10 км 9/5 600 м
[Sc diur, vesp Ac trans Ci sp]
+36.6 +27.3 59 +55 +62 опасность
перегрева
1010.7 1010.1
09 19.04 Ю 3 10 км 6/4 600 м
[Sc diur, vesp Ac trans Ci fib]
+36.4 +26.8 58 +54 +60 опасность
перегрева
1006.8 1006.2
12 19.04 Ю 3 10 км 5/1 600 м
[Sc diur, vesp Ci sp]
+33.0 +28.7 78 +55 +56 опасность
перегрева
1006.1 1005.5 +37.1
15 19.04 Ю 3 4000 м зарница 5/3 600 м
[Cb calv Ac trans Ci sp]
+31.2 +26.5 76 +48 +48 опасность
перегрева
1009.9 1009.3
18 19.04 З 2 4000 м 9/5 600 м
[Sc diur, vesp Ac trans Ci fib]
+30.8 +25.4 73 +45 +45 опасность
перегрева
1009.9 1009.3
21 19.04 З 1 4000 м зарница 5/3 600 м
[Cu med, cong Ac trans Ci sp]
+29.4 +25.1 78 +43 +43 опасность
перегрева
1007.8 1007.2
00 20.04 Ю 3 4000 м 8/5 600 м
[Sc diur, vesp Ac trans Ci fib]
+29.6 +26.2 82 +45 +45 опасность
перегрева
1007.3 1006.7
03 20.04 Ю 2 10 км 8/4 600 м
[Cu Sc Ac trans Ci fib]
+31.8 +26.2 72 +48 +51 опасность
перегрева
1009.3 1008.7 +28.8 +37.1
06 20.04 Ю 2 10 км 5/3 600 м
[Sc diur, vesp Ac trans]
+36.8 +26.0 54 +52 +66 опасность
перегрева
1008.6 1008.0
09 20.04 ЮВ 3 10 км 5/3 600 м
[Cb calv Ac lent Ci fib]
+36.8 +26.9 57 +54 +62 опасность
перегрева
1005.2 1004.6
12 20.04 Ю 3 10 км 8/1 600 м
[Cu Sc Ac As Cs]
+32.6 +26.5 70 +49 +50 опасность
перегрева
1004.7 1004.1 +38.0
15 20.04 Ю 2 4000 м 8/3 600 м
[Cu Sc Ac As Ci sp]
+31.4 +26.4 75 +48 +48 опасность
перегрева
1008.2 1007.6
18 20.04 Ю 5 4000 м зарница 8/4 600 м
[Cb calv Ac As]
+29.0 +24.4 76 +41 +41 опасность
перегрева
1008.2 1007.6
21 20.04 штиль 0 4000 м 8/3 600 м
[Cu Sc Ac As Ci sp]
+29.0 +24.7 78 +41 +41 опасность
перегрева
1006.7 1006.1
00 21.04 штиль 0 4000 м 9/4 600 м
[Cu Sc Ac As]
+28.6 +23.4 73 +39 +39 очень
душно
1007.2 1006.6
03 21.04 З 1 10 км 9/3 600 м
[Cu Sc Ac As Cs]
+30.0 +25.2 76 +44 +47 опасность
перегрева
1009.2 1008.6 +28.4 +38.0
06 21.04 Ю 1 10 км 8/3 600 м
[Cu Sc Ac trans Ci sp]
+35.2 +25.4 57 +50 +61 опасность
перегрева
1008.4 1007.8

 

Местоположение метеостанции Тонди (Тамилнад, Индия): широта 9.73 долгота 79.03 высота над уровнем моря 5 м.

В архиве по умолчанию представлена погода в Тонди за последнюю неделю. Архивные данные за месяц целиком и за предыдущие месяцы, начиная с января 2011 года, Вы можете получить, выбрав интересующий диапазон дат из раскрывающегося списка и нажав кнопку "Ввод!".


*Определитесь, кто Вы:
робот инопланетянин человек

Внимание! Время в таблицах - всемирное. Для получения местного времени необходимо прибавить поправку, которая равна 5.5 ч.

Смотрите также архив погоды в соседних городах и на ближайших метеорологических станциях:

Погода на Памбане (Тамилнад, Индия) (54 км)
Погода в Адирампаттинаме (Тамилнад, Индия) (77 км)
Погода в Кудумиянмалае (Тамилнад, Индия) (84 км)
Погода в Мадурае (Тамилнад, Индия) (102 км)
Погода в Мадурай аэропорту (Тамилнад, Индия) (105 км)
Погода в Ковилангуламе (Тамилнад, Индия) (106 км)
Погода в Джафне (Шри Ланка) (109 км)
Погода в Танджавуре (Тамилнад, Индия) (117 км)
Погода в Тиручирапалли (Тамилнад, Индия) (121 км)
Погода в Маннаре (Шри Ланка) (128 км)

Пояснения к столбцам:

Ветер - указаны скорость ветра в м/с - средняя за 10 мин, порывы в срок и между сроками (в фигурных скобках) и направление, откуда дует ветер: С - северный, СВ - северо-восточный, В - восточный, ЮВ - юго-восточный, Ю - южный, ЮЗ - юго-западный, З - западный, СЗ - северо-западный.
Видимость - горизонтальная дальность видимости в метрах или километрах. При видимости от 1 до 10 км при отсутствии осадков обычно наблюдается дымка, при ухудшении видимости до 1 км и менее - туман. В сухую погоду видимость может ухудшаться дымом, пылью или мглою.
Явления - указаны атмосферные явления, наблюдавшиеся в срок или в последний час перед сроком; фигурными скобками обозначены явления, наблюдавшиеся между сроками (за 1-3 часа до срока); квадратными скобками обозначены град или гололедные отложения с указанием их диаметра в мм.
Облачность - указаны через наклонную черту общая и нижняя облачность в баллах и высота нижней границы облаков в метрах; квадратными скобками обозначены формы облаков: Ci - перистые, Cs - перисто-слоистые, Cc - перисто-кучевые, Ac - высококучевые, As - высокослоистые, Sc - слоисто-кучевые, Ns - слоисто-дождевые, Cu - кучевые, Cb - кучево-дождевые. Подробнее классификацию облаков см. в Атласе облаков (PDF).
T - Температура воздуха - температура, измеренная на высоте 2 м над землей.
Td - Температура точки росы - температура, при понижении до которой содержащийся в воздухе водяной пар достигнет насыщения.
f - Относительная влажность воздуха - влажноcть воздуха, измеренная на высоте 2 м над землей.
Te - Эффективная температура - температура, которую ощущает одетый по сезону человек в тени. Характеристика душности погоды. При расчете учитывается влияние влажности воздуха и скорости ветра на теплоощущения человека.
Tes - Эффективная температура на солнце - температура, которую ощущает человек, с поправкой на солнечный нагрев. Характеристика знойности погоды. Зависит от высоты солнца над горизонтом, облачности и скорости ветра. Ночью, в пасмурную погоду, а также при ветре 12 м/с и более поправка равна нулю.
P - Атмосферное давление - приведенное к уровню моря атмосферное давление.
Po - Атмосферное давление - измеренное на уровне метеостанции атмосферное давление.
Tmin - Минимальная температура - минимум температуры воздуха на высоте 2 м над землей.
Tmax - Максимальная температура - максимум температуры воздуха на высоте 2 м над землей.
R - Количество осадков - Количество выпавших осадков за период времени, мм. При наведении курсора мыши на число - период времени, за который выпало указанное количество осадков.
R24 - Количество осадков - Количество выпавших осадков за 24 часа, мм.
S - Снежный покров - Высота снежного покрова, см. При наведении курсора мыши на число - состояние снежного покрова и степень покрытия местности в баллах.